Tracking 27405 objects as of 1-Jun-2023
HD Live streaming from Space Station
objects crossing your sky now

STARLINK-3902

Track STARLINK-3902 now!
10-day predictions
STARLINK-3902 is classified as:


NORAD ID: 52487
Int'l Code: 2022-049AN
Perigee: 546.3 km
Apogee: 547.5 km
Inclination: 53.2 °
Period: 95.4 minutes
Semi major axis: 6917 km
RCS: Unknown
Launch date: May 6, 2022
Source: United States (US)
Launch site: AIR FORCE EASTERN TEST RANGE (AFETR)
Your satellite tracking list
Your tracking list is empty




NASA's NSSDC Master Catalog

Two Line Element Set (TLE):
1 52487U 22049AN  23151.64547816  .00001815  00000-0  13209-3 0  9999
2 52487  53.2155 276.9609 0000869  97.7975 262.3116 15.08844528 60692
Source of the keplerian elements: AFSPC